901  
FPUS82 KCHS 270226  
OPUCHS  
 
TEST   
..KCHS/KSAV GATEWAY OBSERVATIONS
 
TEST  
NATIONAL WEATHER SERVICE CHARLESTON SC  
900 PM EST SUN FEB 26 2017  
 
NOTE: "FAIR" INDICATES FEW OR NO CLOUDS BELOW 12,000 FEET WITH NO  
SIGNIFICANT WEATHER AND/OR OBSTRUCTIONS TO VISIBILITY.  
 
SCZ050-WAZ558-NCZ071-TXZ119-213-PAZ071-DCZ001-FLZ074-172-MI076-  
NYZ176-178-MAZ016-IL014-TNZ027-NJZ106-GAZ044-MD014-270300-   
..GATEWAY OBSERVATIONS FOR CHARLESTON INTERNATIONAL
 
 
 
CITY SKY/WX TMP DP RH WIND PRES REMARKS  
CHAS AIRPORT CLEAR 51 38 60 CALM 30.28R  
SEATTLE CLOUDY 39 37 92 N7 29.72R WCI 34  
CHARLOTTE CLEAR 50 17 27 SE7 30.26R  
DALLAS DFW CLOUDY 59 53 80 NE7 29.88R  
DALLAS LOVE CLOUDY 62 52 69 E7 29.90R  
PHILLADELPHIA CLEAR 39 16 39 W7 30.27R WCI 34  
WASH NATIONAL PTCLDY 44 24 45 NE6 30.28R  
BALTIMORE CLEAR 32 22 66 CALM 30.27R  
MIAMI PTCLDY 76 66 71 NE12 30.15R  
DETROIT MOCLDY 38 22 52 S17 30.04S WCI 28  
NEWARK CLEAR 37 15 40 W10 30.23R WCI 30  
LAGUARDIA PTCLDY 40 17 39 W16G25 30.22R WCI 31  
J F K CLEAR 39 18 42 W16G23 30.24R WCI 30  
BOSTON LOGAN PTCLDY 34 15 46 W10 30.13R WCI 26  
FT. LAUDERDALE PTCLDY 75 65 70 NE15 30.14R  
CHICAGO O'HARE LGT RAIN 44 28 53 SW16G25 29.99R  
CHICAGO MIDWAY CLOUDY 45 22 40 SW18 30.01R  
HOUSTON BUSH MOCLDY 68 61 78 SE13 29.94S  
HOUSTON HOBBY CLOUDY 69 62 78 SE8 29.94R  
NASHVILLE MOCLDY 50 26 39 NE3 30.14S  
ATLANTA PTCLDY 55 18 23 SE5 30.22R  
 

 
 
GAZ044-118-TXZ119-213-NCZ071-DCZ001-MDZ014-506-PAZ021-071-NJZ106-  
NYZ176-178-MAZ106-OHZ011-021-055-MIZ076-KYZ091-ILZ014-INZ047-  
MNZ060-ONZ431-270300-   
..GATEWAY OBSERVATIONS FOR SAVANNAH INTERNATIONAL
 
 
 
CITY SKY/WX TMP DP RH WIND PRES REMARKS  
SAVANNAH ARPT CLEAR 53 37 54 SE3 30.27R  
ATLANTA PTCLDY 55 18 23 SE5 30.22R  
CHARLOTTE CLEAR 50 17 27 SE7 30.26R  
DALLAS DFW CLOUDY 59 53 80 NE7 29.88R  
HOUSTON BUSH MOCLDY 68 61 78 SE13 29.94S  
WASH NATIONAL PTCLDY 44 24 45 NE6 30.28R  
WASH DULLES PTCLDY 33 20 58 CALM 30.27R  
BALTIMORE CLEAR 32 22 66 CALM 30.27R  
PHILADELPHIA CLEAR 39 16 39 W7 30.27R WCI 34  
NEWARK CLEAR 37 15 40 W10 30.23R WCI 30  
LAGUARDIA PTCLDY 40 17 39 W16G25 30.22R WCI 31  
J F K CLEAR 39 18 42 W16G23 30.24R WCI 30  
BOSTON PTCLDY 34 15 46 W10 30.13R WCI 26  
PITTSBURG PTCLDY 34 15 46 S6 30.18R WCI 29  
AKRON PTCLDY 35 17 47 SW16 30.13F WCI 25  
CLEVELAND PTCLDY 38 19 46 S12G21 30.14R WCI 30  
CINCINNATI CLOUDY 40 21 46 S7 30.16S WCI 35  
COLUMBUS CLEAR 36 19 50 S6 30.18S WCI 31  
DETROIT MOCLDY 38 22 52 S17 30.04S WCI 28  
CHICAGO O'HARE LGT RAIN 44 28 53 SW16G25 29.99R  
MINNEAPOLIS PTCLDY 30 11 45 W5 29.93R WCI 25  
INDIANAPOLIS CLOUDY 40 17 39 S8 30.12S WCI 34  
TORONTO CANADA CLOUDY 34 19 55 SW14 30.01R WCI 24  
 

 
 
 
CLICK HERE TO GO TO PREVIOUS BULLETINS.

The Nexlab SC Page
The Nexlab GA Page Main Text Page